TimePDT,TemperatureF,Dew PointF,Humidity,Sea Level PressureIn,VisibilityMPH,Wind Direction,Wind SpeedMPH,Gust SpeedMPH,PrecipitationIn,Events,Conditions,WindDirDegrees,DateUTC
1:53 AM,-9999,-9999,N/A,29.94,-9999.0,North,-9999.0,-,N/A,,Unknown,0,2013-06-20 08:53:00
2:53 AM,-9999,-9999,N/A,29.93,-9999.0,North,-9999.0,-,N/A,,Unknown,0,2013-06-20 09:53:00
3:53 AM,-9999,-9999,N/A,29.93,-9999.0,North,-9999.0,-,N/A,,Unknown,0,2013-06-20 10:53:00
4:53 AM,-9999,-9999,N/A,29.93,-9999.0,North,-9999.0,-,N/A,,Unknown,0,2013-06-20 11:53:00
5:53 AM,55.9,48.0,75,29.94,10.0,NNW,6.9,-,N/A,,Clear,340,2013-06-20 12:53:00
6:53 AM,59.0,48.0,67,29.95,10.0,North,8.1,-,N/A,,Clear,350,2013-06-20 13:53:00
7:53 AM,63.0,46.9,56,29.95,10.0,NNW,9.2,-,N/A,,Clear,330,2013-06-20 14:53:00
8:53 AM,68.0,46.9,47,29.96,10.0,NW,13.8,-,N/A,,Clear,310,2013-06-20 15:53:00
9:53 AM,72.0,48.0,43,29.95,10.0,WNW,10.4,-,N/A,,Clear,300,2013-06-20 16:53:00
10:53 AM,75.0,48.0,38,29.94,10.0,WNW,11.5,-,N/A,,Clear,300,2013-06-20 17:53:00
11:53 AM,78.1,46.9,33,29.94,10.0,Variable,6.9,16.1,N/A,,Clear,0,2013-06-20 18:53:00
12:53 PM,82.0,44.1,26,29.93,10.0,NW,10.4,-,N/A,,Clear,320,2013-06-20 19:53:00
1:53 PM,82.9,43.0,24,29.91,10.0,NW,11.5,-,N/A,,Clear,320,2013-06-20 20:53:00
2:53 PM,84.9,42.1,22,29.89,10.0,NNW,16.1,21.9,N/A,,Clear,330,2013-06-20 21:53:00
3:53 PM,84.9,41.0,21,29.89,10.0,NNW,9.2,20.7,N/A,,Clear,330,2013-06-20 22:53:00
4:53 PM,86.0,37.9,18,29.89,10.0,NNW,15.0,21.9,N/A,,Clear,340,2013-06-20 23:53:00
5:53 PM,84.9,42.1,22,29.88,10.0,NNW,17.3,20.7,N/A,,Clear,330,2013-06-21 00:53:00
6:53 PM,82.9,44.1,25,29.88,10.0,NW,15.0,23.0,N/A,,Clear,310,2013-06-21 01:53:00
7:53 PM,78.1,35.1,21,29.89,10.0,NW,16.1,-,N/A,,Clear,310,2013-06-21 02:53:00
8:53 PM,73.0,37.0,27,29.90,10.0,NW,9.2,-,N/A,,Clear,310,2013-06-21 03:53:00
9:53 PM,71.1,39.9,32,29.91,10.0,NW,12.7,-,N/A,,Clear,310,2013-06-21 04:53:00
10:53 PM,71.1,39.9,32,29.91,10.0,WNW,11.5,-,N/A,,Clear,290,2013-06-21 05:53:00
11:53 PM,66.0,44.1,45,29.92,10.0,North,8.1,-,N/A,,Clear,10,2013-06-21 06:53:00